Bloomington, IN

2:51 AM EDT on June 24, 2017 (GMT -0400)
Monroe County

Weather History for KBMG - January, 2004

Change the Weather History Date:

Friday, January 2, 2004

  Actual Average Record
Temperature  
Mean Temperature 56 °F 29 °F  
Max Temperature 63 °F 38 °F 66 °F (2006)
Min Temperature 50 °F 21 °F 1 °F (2001)
Degree Days  
Heating Degree Days 8 36  
Month to date heating degree days 72  
Since 1 July heating degree days 2145  
Cooling Degree Days 0 0  
Month to date cooling degree days 0  
Year to date cooling degree days 0  
Growing Degree Days 6 (Base 50)    
Moisture  
Dew Point 55 °F    
Average Humidity 99    
Maximum Humidity 100    
Minimum Humidity 90    
Precipitation  
Precipitation 0.20 in 0.13 in 1.01 in (1999)
Month to date precipitation 0.27  
Year to date precipitation 0.27  
Sea Level Pressure  
Sea Level Pressure 29.95 in    
Wind  
Wind Speed 10 mph (SSW)    
Max Wind Speed 23 mph    
Max Gust Speed 32 mph    
Visibility 3 miles    
Events Fog , Rain , Thunderstorm    
T = Trace of Precipitation, MM = Missing Value Source: NWS Daily Summary

Daily Weather History Graph

Daily Weather History Graph

Search for Another Location

Airport or City:

Trip Planner

Search our weather history database for the weather conditions in past years. The results will help you decide how hot, cold, wet, or windy it might be!

Date:

Astronomy

Jan. 02, 2004 Rise Set
Actual Time 8:05 AM EST 5:34 PM EST
Civil Twilight 7:36 AM EST 6:04 PM EST
Nautical Twilight 7:02 AM EST 6:38 PM EST
Astronomical Twilight 6:30 AM EST 7:10 PM EST
Moon 2:06 PM EST (1/2) 3:38 AM EST (1/2)
Length of Visible Light 10h 28m
Length of Day
9h 28m
Waxing Gibbous, 79% of the Moon is Illuminated
Jan 2
Waxing Gibbous
Jan 7
Full
Jan 14
Last Quarter
Jan 21
New
Jan 29
First Quarter

Hourly Weather History & Observations

Time (EST) Temp. Dew Point Humidity Pressure Visibility Wind Dir Wind Speed Gust Speed Precip Events Conditions
12:10 AM 50.0 °F 50.0 °F 100% 30.02 in 10.0 mi SW 10.4 mph - 0.00 in Rain Light Rain
12:21 AM 50.0 °F 50.0 °F 100% 30.03 in 2.5 mi SW 6.9 mph - 0.05 in Rain , Thunderstorm Heavy Rain
12:38 AM 50.0 °F 50.0 °F 100% 30.03 in 3.0 mi SSW 8.1 mph - 0.10 in Rain , Thunderstorm Thunderstorms and Rain
12:53 AM 51.1 °F 51.1 °F 100% 30.04 in 3.0 mi SW 8.1 mph - 0.16 in Rain Rain
1:53 AM 52.0 °F 52.0 °F 100% 30.02 in 10.0 mi SW 10.4 mph - 0.01 in   Overcast
2:33 AM 53.6 °F 53.6 °F 100% 30.03 in 8.0 mi SW 10.4 mph - N/A   Overcast
2:53 AM 53.1 °F 53.1 °F 100% 30.04 in 6.0 mi SW 10.4 mph - N/A   Overcast
3:22 AM 53.6 °F 53.6 °F 100% 30.04 in 2.0 mi SW 10.4 mph - N/A   Overcast
3:31 AM 53.6 °F 53.6 °F 100% 30.04 in 1.5 mi SW 12.7 mph - N/A   Overcast
3:53 AM 53.1 °F 53.1 °F 100% 30.04 in 0.8 mi WSW 9.2 mph - N/A   Overcast
4:13 AM 53.6 °F 53.6 °F 100% 30.04 in 1.2 mi SW 6.9 mph - N/A   Overcast
4:53 AM 53.1 °F 53.1 °F 100% 30.02 in 2.0 mi SW 11.5 mph - N/A   Overcast
5:09 AM 53.6 °F 53.6 °F 100% 30.02 in 1.5 mi SW 6.9 mph - N/A   Overcast
5:31 AM 53.6 °F 53.6 °F 100% 30.02 in 0.8 mi SW 8.1 mph - N/A   Overcast
5:53 AM 54.0 °F 54.0 °F 100% 30.02 in 0.8 mi SW 9.2 mph - N/A   Overcast
6:39 AM 53.6 °F 53.6 °F 100% 30.02 in 0.2 mi WSW 5.8 mph - N/A Fog Fog
6:53 AM 54.0 °F 54.0 °F 100% 30.03 in 0.5 mi SW 6.9 mph - N/A Fog Fog
7:53 AM 54.0 °F 54.0 °F 100% 30.01 in 0.5 mi SSW 6.9 mph - N/A Fog Fog
8:53 AM 54.0 °F 54.0 °F 100% 30.03 in 0.5 mi South 5.8 mph - 0.01 in Fog Fog
9:11 AM 55.4 °F 55.4 °F 100% 30.03 in 0.2 mi South 5.8 mph - N/A Fog Fog
9:53 AM 55.0 °F 55.0 °F 100% 30.03 in 0.2 mi South 6.9 mph - N/A Fog Fog
10:36 AM 55.4 °F 55.4 °F 100% 30.02 in 0.5 mi SSE 6.9 mph - N/A Fog Fog
10:53 AM 55.0 °F 55.0 °F 100% 30.02 in 0.8 mi SSE 6.9 mph - N/A   Overcast
11:53 AM 55.0 °F - N/A% 29.99 in 0.5 mi South 11.5 mph - N/A Fog Fog
12:35 PM 55.4 °F 55.4 °F 100% 29.96 in 0.2 mi South 10.4 mph - N/A Fog Fog
12:53 PM 55.0 °F 55.0 °F 100% 29.95 in 0.2 mi SSE 10.4 mph - N/A Fog Fog
1:26 PM 55.4 °F 55.4 °F 100% 29.94 in 0.5 mi South 13.8 mph - N/A Fog Fog
1:53 PM 54.0 °F 54.0 °F 100% 29.92 in 0.5 mi South 12.7 mph - N/A Fog Fog
2:53 PM 54.0 °F - N/A% 29.88 in 0.8 mi SSE 10.4 mph - N/A   Overcast
3:29 PM 55.4 °F 55.4 °F 100% 29.87 in 0.8 mi SSE 10.4 mph - 0.00 in Rain Light Rain
3:41 PM 55.4 °F 55.4 °F 100% 29.88 in 1.0 mi SSE 10.4 mph - 0.01 in Rain Light Rain
3:53 PM 55.0 °F 55.0 °F 100% 29.87 in 1.5 mi SSE 11.5 mph - 0.01 in   Overcast
4:53 PM 55.9 °F 55.9 °F 100% 29.85 in 1.5 mi South 15.0 mph 19.6 mph 0.01 in   Overcast
5:05 PM 57.2 °F 57.2 °F 100% 29.86 in 2.0 mi South 12.7 mph - N/A   Overcast
5:27 PM 57.2 °F 57.2 °F 100% 29.85 in 3.0 mi South 13.8 mph 23.0 mph 0.00 in   Overcast
5:34 PM 57.2 °F 57.2 °F 100% 29.84 in 4.0 mi South 15.0 mph - 0.00 in   Overcast
5:53 PM 57.9 °F 57.9 °F 100% 29.84 in 6.0 mi SSW 16.1 mph - 0.00 in   Overcast
6:42 PM 60.8 °F 60.8 °F 100% 29.84 in 8.0 mi SSW 16.1 mph 24.2 mph N/A   Overcast
6:53 PM 60.1 °F 60.1 °F 100% 29.83 in 8.0 mi SSW 17.3 mph 23.0 mph N/A   Overcast
7:53 PM 61.0 °F 59.0 °F 93% 29.82 in 10.0 mi SSW 16.1 mph 27.6 mph N/A   Overcast
8:53 PM 62.1 °F 60.1 °F 93% 29.82 in 10.0 mi SSW 19.6 mph 26.5 mph N/A   Overcast
9:53 PM 62.1 °F 60.1 °F 93% 29.83 in 10.0 mi SSW 21.9 mph 32.2 mph N/A   Overcast
10:53 PM 63.0 °F 60.1 °F 90% 29.84 in 10.0 mi SW 19.6 mph 29.9 mph N/A   Overcast
11:53 PM 62.1 °F 60.1 °F 93% 29.84 in 10.0 mi SSW 23.0 mph 28.8 mph N/A   Overcast